Theta_e
340 341 344 346 343 345 346 347 346 345 348 347 346 344 341 339 338 339 339 339 340 340 341 341 341 341 342 341 341 341 342 344 345 346 346 346 346 346 346 346 346 346 345 345 345 345 345 345 345 344 345 345 345 344 345 346 346 346 346 346 346 345 346 345 344 344 344 343 344 345 345 345 345 344 345 342 341 340 339 338 337 334 335 336 338
339 342 343 344 343 346 347 347 346 344 343 343 342 341 341 341 339 340 342 342 339 340 341 341 340 340 341 341 340 341 341 341 342 344 345 345 345 345 346 345 345 345 345 345 345 346 347 346 347 347 347 346 346 346 346 345 346 345 344 344 344 344 343 343 342 342 343 343 343 342 342 343 343 343 341 340 339 339 338 337 337 335 334 335 337
342 341 343 343 345 347 347 347 346 344 344 343 342 341 341 343 343 343 341 340 339 340 341 341 340 339 339 342 341 341 340 340 341 342 343 343 343 344 344 344 343 344 344 345 345 345 346 346 347 347 347 346 346 346 345 345 344 344 343 343 343 342 342 341 340 340 341 341 342 342 341 342 340 341 341 339 338 337 336 337 335 333 331 333 333
340 340 342 344 344 347 347 347 346 345 344 343 343 342 341 342 342 341 340 340 340 340 341 340 341 341 341 341 341 341 340 340 340 341 341 342 343 343 342 343 343 342 344 344 345 345 345 346 347 346 345 345 345 345 344 343 343 343 342 342 341 340 339 339 338 338 338 340 340 339 338 338 338 340 339 338 337 336 335 334 333 334 333 333 333
340 340 341 343 346 347 347 347 346 345 345 344 343 341 341 342 343 343 343 341 339 338 340 341 341 340 341 341 341 342 339 340 340 341 342 343 342 342 343 343 342 343 345 345 345 345 345 346 346 346 345 344 344 343 342 343 342 342 341 340 339 338 338 338 338 337 337 337 338 337 335 336 335 334 336 336 335 333 333 333 333 333 332 331 332
340 340 341 342 346 349 347 347 346 345 345 344 343 342 340 340 342 342 341 341 341 340 340 340 340 339 340 341 341 341 341 341 341 342 343 344 343 343 343 343 344 344 344 344 344 345 345 345 345 345 344 343 343 343 342 342 341 340 340 339 338 338 338 337 337 338 337 336 335 334 334 333 331 331 335 334 334 334 333 332 331 329 329 330 330
340 340 340 341 345 346 345 347 346 345 344 343 342 340 339 339 343 343 343 344 343 341 340 340 340 340 341 341 341 341 341 341 341 342 343 342 341 343 344 344 344 344 343 344 344 344 344 345 344 344 344 343 342 342 341 341 341 340 339 338 338 337 336 336 336 336 337 334 334 334 332 333 333 332 334 334 333 333 332 332 330 330 329 329 331
340 341 341 343 344 345 345 346 347 345 344 343 342 341 340 341 340 342 344 343 344 343 342 341 340 341 341 341 343 344 343 342 341 341 341 341 344 343 343 343 343 342 343 343 343 343 343 344 344 344 343 342 342 342 341 340 340 338 337 337 336 336 335 335 335 335 336 333 334 333 332 332 332 332 333 333 333 332 331 331 329 332 332 330 330
338 340 341 341 345 343 345 347 347 345 345 344 344 342 341 340 339 340 342 342 343 344 344 344 343 344 344 343 342 342 343 343 342 342 342 342 342 342 342 342 343 343 343 343 343 343 343 344 343 343 343 342 341 341 340 340 339 337 336 335 335 335 334 334 334 335 332 330 331 333 332 331 332 332 333 332 332 330 329 328 328 330 329 331 330
339 340 341 341 345 343 344 346 346 346 345 344 344 341 341 340 339 338 339 341 343 344 344 344 344 345 344 344 343 343 343 343 342 342 341 342 343 343 343 343 343 343 343 343 343 343 343 342 343 342 342 341 340 340 340 339 337 336 335 334 334 334 333 333 333 333 332 332 330 331 332 333 332 332 331 332 331 330 330 332 332 332 332 332 331
339 340 341 342 346 342 346 347 347 346 346 345 343 342 341 340 340 340 339 342 342 342 344 344 344 344 344 343 342 341 341 341 341 342 342 343 343 342 342 341 342 342 341 341 342 343 342 342 342 341 341 339 339 338 338 337 336 335 334 334 333 333 332 333 332 331 331 332 332 331 331 334 331 331 333 333 332 331 331 329 330 331 330 329 330
338 340 341 342 345 341 345 346 346 346 346 345 343 343 341 341 341 340 338 340 342 341 342 344 343 343 342 342 341 341 341 342 342 342 341 341 341 341 341 341 341 340 341 341 340 341 341 341 341 341 339 338 337 337 336 336 335 334 334 333 332 332 331 332 330 332 332 331 332 332 332 331 330 329 331 331 332 331 330 329 328 328 329 332 330
338 338 340 344 345 340 343 345 345 346 346 345 344 343 342 341 340 340 338 339 341 340 340 343 343 343 342 341 341 341 341 341 340 341 340 340 340 340 340 341 341 341 341 341 340 341 340 341 341 340 338 337 336 335 335 334 333 333 332 332 331 330 330 332 330 331 331 333 333 332 331 331 332 332 332 332 332 332 331 330 329 330 331 329 329
337 338 338 341 343 344 340 343 344 345 345 346 344 343 343 342 340 340 340 339 338 338 339 342 342 342 341 341 340 340 340 339 339 339 339 340 340 340 340 340 339 340 339 339 340 340 340 340 339 339 337 336 335 334 333 332 332 332 331 331 330 329 329 329 330 331 331 331 332 331 331 331 331 332 332 331 331 331 329 328 328 328 329 328 328
336 338 338 339 343 344 341 339 341 343 344 345 345 344 344 342 340 340 340 338 338 341 342 342 341 341 340 340 340 339 339 339 339 339 339 339 339 340 339 339 339 339 339 339 339 339 339 339 339 338 337 335 334 334 333 332 332 331 331 330 329 329 327 327 327 329 329 330 331 331 331 331 330 331 331 332 330 330 330 328 328 327 330 329 328
338 338 339 338 342 344 344 341 337 340 341 342 343 343 344 343 341 340 340 339 338 341 342 341 340 340 340 340 340 339 339 339 340 339 339 340 339 339 339 339 339 339 338 338 338 338 338 338 338 337 336 334 334 333 333 332 332 331 330 329 328 328 325 326 329 329 328 329 331 331 330 329 330 331 330 331 331 330 330 328 328 327 330 329 329
337 338 337 337 341 341 341 343 340 335 336 338 338 340 342 342 341 340 340 340 340 340 341 341 340 340 340 340 339 339 340 340 340 340 340 340 338 339 339 339 338 338 338 338 337 337 337 338 338 337 336 335 334 333 333 332 331 330 329 328 327 326 324 325 328 328 328 330 331 330 330 330 330 329 330 330 331 330 329 328 328 327 328 328 325
337 336 335 335 338 340 339 342 344 344 345 339 334 337 339 341 340 339 339 339 340 341 342 341 341 340 340 339 340 340 339 339 338 338 338 338 338 338 339 338 338 337 337 337 337 337 337 338 338 337 336 335 333 333 332 331 330 328 327 327 326 323 324 323 328 328 328 330 330 331 331 333 329 329 329 329 330 328 328 328 328 326 326 326 326
334 335 335 335 335 337 338 340 341 341 342 343 344 343 334 336 337 337 337 338 339 338 338 338 337 337 337 336 336 334 334 334 334 334 335 335 334 331 333 337 337 337 337 336 336 335 335 336 336 336 335 334 333 332 331 330 328 327 326 325 322 322 321 325 327 328 328 328 330 329 330 332 329 329 329 328 328 328 328 327 327 327 325 326 327
334 334 334 335 335 336 337 337 339 339 340 342 343 344 334 331 334 335 335 335 334 334 334 333 331 330 330 330 330 334 332 334 328 334 329 331 330 331 331 337 336 336 336 336 335 334 334 334 334 333 332 332 331 330 329 328 327 326 325 323 322 320 329 328 328 327 327 326 328 327 329 332 331 330 329 328 328 328 328 327 326 326 324 325 326
332 333 333 333 335 335 335 336 338 338 339 341 341 343 341 331 331 330 330 330 331 331 329 325 323 323 326 325 328 337 337 336 336 336 329 337 323 326 331 335 336 335 335 335 335 334 334 333 332 331 330 328 326 324 325 326 325 324 323 322 318 328 329 329 329 328 328 327 328 327 330 331 329 331 330 329 327 328 327 326 325 325 324 324 324
330 330 333 334 333 334 334 335 337 338 339 340 340 341 342 337 340 338 339 334 329 327 334 338 335 338 325 334 337 335 334 335 335 335 336 336 332 323 327 332 334 334 334 334 335 333 333 332 332 331 329 327 326 331 328 322 321 323 321 318 328 328 329 329 329 328 328 328 327 327 329 330 330 332 331 333 329 328 327 326 326 325 324 323 324
329 330 331 332 333 333 333 333 334 336 338 338 339 339 340 339 339 339 338 333 335 336 336 337 337 336 337 336 334 335 335 335 335 333 333 320 327 322 325 328 329 329 330 331 332 331 330 329 328 326 326 326 332 332 332 331 331 317 318 328 329 328 329 329 329 329 328 327 328 324 327 329 329 331 332 332 330 327 327 327 326 326 327 326 323
329 330 331 333 333 333 333 334 334 335 336 337 338 339 338 337 337 337 337 336 337 336 337 336 334 335 335 335 334 335 335 334 325 324 328 334 329 319 319 320 321 322 323 327 326 327 325 324 324 325 328 329 332 331 331 331 330 331 330 329 329 329 329 328 328 329 328 328 329 322 325 328 329 330 331 332 331 328 327 328 329 327 327 328 326
331 331 331 331 332 332 332 333 333 334 334 334 336 336 337 336 335 336 336 335 334 335 335 335 335 333 334 333 334 334 334 333 334 333 333 332 332 332 332 332 333 331 323 332 332 330 331 333 332 330 332 332 331 331 331 331 330 330 330 329 329 330 329 329 329 328 329 329 329 321 323 327 329 330 331 331 330 330 330 331 330 330 329 329 329
331 329 330 331 332 332 333 333 332 332 334 334 334 335 336 335 334 335 335 334 335 334 335 334 334 334 332 333 333 333 332 332 332 332 331 331 331 330 330 330 331 330 330 331 331 332 332 332 332 332 331 331 331 331 330 330 330 329 329 330 329 329 329 329 329 328 329 329 329 320 322 326 327 329 329 331 330 330 330 329 330 331 331 331 332
330 330 331 332 332 333 332 333 331 332 332 333 332 333 333 334 334 334 333 332 333 333 333 334 334 334 333 332 331 330 330 331 330 330 330 331 330 330 329 329 329 329 329 330 331 330 331 331 331 331 331 330 330 330 330 330 330 329 329 329 328 328 328 329 328 328 329 329 326 319 321 324 326 328 329 330 330 330 330 330 331 331 331 331 331
332 331 331 332 332 332 332 332 331 331 331 332 331 331 332 332 334 333 333 331 331 332 333 333 334 332 333 332 331 331 329 328 329 329 329 330 329 329 330 328 328 327 327 329 330 329 329 330 331 331 330 329 329 329 329 329 329 329 329 329 328 328 328 327 328 328 328 329 329 323 320 321 323 326 329 330 330 329 330 330 331 331 332 332 332
332 331 331 331 332 333 332 331 331 331 331 331 330 331 331 331 332 332 332 329 331 333 333 334 332 332 332 332 332 330 329 329 328 328 329 328 329 329 328 328 328 327 328 328 329 329 329 330 330 330 330 329 328 328 328 328 328 329 328 328 328 327 328 328 328 328 328 328 328 325 319 319 322 324 328 329 330 330 330 329 330 331 332 332 332
333 333 332 332 333 333 332 331 331 331 331 331 331 330 331 331 331 331 332 331 332 332 333 332 332 332 332 332 332 331 330 329 329 328 327 327 327 327 327 328 327 328 327 328 328 328 328 328 329 329 329 328 328 328 326 327 327 328 328 327 327 327 327 327 327 327 327 327 327 327 318 318 319 323 326 327 329 330 330 330 330 330 331 331 332
333 332 333 333 333 333 333 332 332 332 332 330 331 331 331 330 330 331 331 331 331 331 331 331 332 332 332 333 332 332 332 331 330 328 327 327 327 327 326 327 327 327 328 328 327 328 328 328 329 328 327 327 326 327 326 326 326 326 327 326 326 326 326 326 326 326 326 326 326 326 327 318 318 320 322 324 326 327 328 329 329 330 331 331 332
332 333 334 334 333 333 333 333 333 332 331 331 331 330 330 330 331 331 330 330 331 331 331 331 331 331 333 332 332 332 332 332 331 330 329 328 328 327 327 326 326 327 327 327 326 328 328 329 329 329 329 327 327 327 327 325 325 326 326 326 326 325 325 325 325 325 325 326 326 327 327 326 318 318 319 320 322 324 326 327 328 328 330 330 331
332 333 334 335 333 333 333 333 333 333 331 331 331 331 331 331 330 330 330 330 330 330 330 330 330 331 332 332 332 333 332 332 332 331 330 329 329 327 327 327 328 327 326 326 326 328 328 328 328 328 328 327 327 327 328 326 325 326 326 326 326 325 325 325 325 325 325 327 327 327 327 327 327 319 316 316 318 320 323 324 325 327 328 328 328
331 332 333 333 333 334 333 333 333 333 332 332 332 331 331 332 331 331 331 330 329 329 329 329 330 330 331 331 332 333 331 332 332 332 331 330 330 329 328 328 328 328 327 325 325 328 328 328 328 327 324 326 326 326 325 326 326 326 325 326 325 326 325 324 324 325 325 326 326 327 326 326 325 326 326 317 316 317 320 322 324 325 326 326 326
331 332 332 332 333 333 332 332 332 333 333 332 331 332 332 332 331 332 331 330 330 330 330 331 330 329 329 330 331 332 332 332 333 332 331 331 330 330 329 330 331 329 328 328 328 329 329 328 327 326 327 326 326 326 325 325 325 325 325 325 325 326 326 326 326 326 325 326 326 326 326 325 325 325 324 324 316 315 317 318 321 323 323 323 324
331 331 332 333 333 333 332 331 332 332 333 332 332 332 332 333 332 328 332 332 330 330 330 331 331 331 331 332 332 332 332 332 332 332 331 331 330 329 330 331 332 330 329 329 329 328 328 328 328 328 326 326 326 326 326 325 325 325 326 326 326 325 326 326 326 326 326 325 325 326 325 325 324 323 318 323 323 320 315 316 318 319 319 319 321
332 332 331 332 332 332 331 331 330 331 332 332 332 332 333 332 332 332 332 332 331 330 330 331 332 331 332 332 332 331 332 332 332 332 331 331 330 330 331 333 332 330 329 329 328 329 329 328 328 327 327 325 325 325 325 325 325 324 325 326 327 327 326 325 325 325 326 325 326 325 324 324 323 315 323 322 322 321 317 313 315 315 315 315 318
332 332 333 331 331 332 332 331 331 331 332 332 332 332 332 332 332 332 331 331 331 331 331 330 330 331 332 332 333 332 331 332 332 331 330 331 331 331 332 332 330 329 329 328 328 329 329 328 326 326 326 325 324 324 324 324 325 325 325 325 325 325 324 325 325 321 324 324 324 324 323 323 323 323 322 322 322 320 320 317 314 315 313 314 316
332 332 332 331 331 331 331 330 330 331 331 332 332 332 332 332 332 332 331 331 331 331 331 329 329 330 333 334 333 332 330 332 331 331 330 330 330 331 331 329 328 328 327 327 326 325 325 326 326 325 323 325 324 324 323 324 324 324 324 324 324 324 325 326 326 324 323 324 323 321 324 323 323 322 321 321 319 319 319 319 318 318 317 312 314
331 331 330 331 331 331 331 331 330 330 331 331 331 330 330 329 329 330 330 330 331 330 331 330 330 330 331 333 334 333 332 331 331 331 330 330 329 329 330 329 326 326 326 326 325 325 324 325 325 325 324 324 324 324 323 323 323 323 322 323 324 324 325 325 324 323 322 323 323 323 322 322 322 321 320 319 319 319 318 317 317 316 316 314 313
330 330 329 330 330 330 330 329 331 331 330 330 330 330 328 328 329 329 329 330 331 331 330 331 331 330 331 331 333 334 334 332 331 331 330 327 330 330 329 327 326 326 327 327 328 327 327 327 326 325 323 323 323 324 324 324 321 320 321 322 322 324 324 322 321 321 322 322 322 322 322 321 321 320 319 319 318 317 316 316 315 315 315 315 313
328 328 328 329 330 331 330 330 331 331 330 331 331 330 331 330 329 329 330 331 332 329 329 330 331 331 331 331 331 332 333 332 331 331 330 330 329 329 328 327 326 326 327 328 329 324 328 327 326 324 325 323 323 324 325 322 319 317 316 317 318 320 322 320 319 320 322 323 321 321 321 321 319 319 318 318 318 316 315 314 314 314 314 314 313
328 328 329 330 330 330 330 331 332 331 331 332 332 331 332 333 333 332 332 331 334 333 332 332 332 331 331 331 331 331 332 331 332 330 329 330 330 329 329 328 326 326 325 325 327 328 327 325 325 323 323 324 323 323 323 323 319 320 320 316 312 313 318 319 319 319 321 321 321 321 320 319 317 318 318 317 315 314 314 313 313 313 313 313 313
327 327 328 329 330 329 330 331 331 332 332 332 330 333 333 334 334 334 334 333 331 333 333 333 332 331 330 331 331 332 332 331 331 331 330 330 330 329 329 328 327 326 327 327 326 325 325 326 326 325 324 321 320 319 322 322 321 319 314 313 313 313 309 315 316 319 319 320 320 319 319 318 318 318 318 316 314 313 312 313 312 312 312 312 312
326 327 328 328 328 329 330 331 331 332 332 331 331 333 333 332 333 333 334 333 333 332 331 330 331 330 330 330 330 331 331 330 331 330 329 330 330 330 329 328 328 327 327 327 327 326 327 327 325 324 324 321 320 321 321 319 317 321 319 314 312 311 311 314 315 316 318 318 319 318 318 318 317 316 316 315 314 313 311 311 312 311 312 311 312
325 326 328 328 329 329 330 331 331 332 332 332 332 332 331 330 329 328 326 327 326 326 326 327 329 329 329 331 331 331 331 331 331 331 329 327 329 329 330 329 329 328 328 328 327 327 326 326 326 326 324 325 322 320 320 316 316 319 321 321 320 314 313 313 312 309 316 318 317 317 317 317 316 316 316 313 312 311 311 311 311 310 310 311 311
323 326 328 328 329 329 330 331 331 332 333 333 333 330 330 330 329 329 328 327 326 327 329 330 330 331 332 331 331 331 331 331 331 331 330 329 328 329 330 330 330 329 328 326 325 326 328 328 328 326 325 325 324 319 319 319 316 318 320 321 321 318 318 314 311 313 309 313 315 315 315 316 316 316 314 312 311 309 310 310 310 310 310 310 309
321 324 326 327 327 328 329 330 330 330 332 332 332 331 329 330 329 328 328 328 327 327 329 330 331 331 331 331 331 330 331 332 331 331 331 330 328 329 330 330 331 331 327 326 327 328 328 328 327 327 326 324 323 321 320 321 318 319 319 319 318 316 315 316 316 312 311 308 311 315 316 315 315 315 314 311 309 309 309 308 308 310 309 308 305
319 322 324 325 327 328 328 329 329 330 330 331 331 330 329 329 329 328 327 327 328 328 329 330 330 331 330 331 331 331 331 331 332 331 331 331 328 328 329 328 328 327 326 326 327 328 326 327 326 324 323 323 323 324 322 321 320 319 316 316 315 314 314 314 313 313 309 308 310 310 310 313 313 314 313 311 309 309 309 308 309 309 307 305 303
313 317 320 323 325 327 327 327 328 329 329 330 330 330 329 328 329 328 327 327 327 328 329 328 329 329 328 329 330 330 329 329 330 331 331 331 330 329 328 328 328 327 324 325 326 326 327 328 326 323 322 322 323 322 322 323 322 321 320 318 314 312 311 310 310 309 309 310 308 309 309 307 306 309 311 308 308 307 308 308 308 307 306 303 301
310 312 315 319 322 324 325 325 327 328 329 329 329 329 329 328 327 328 328 327 327 327 326 326 327 328 327 328 329 329 329 329 330 330 331 331 331 329 328 328 328 327 324 325 325 325 326 326 324 322 322 322 322 322 321 322 322 320 318 317 316 314 312 309 307 308 309 306 306 307 308 307 305 305 306 307 306 306 307 308 306 305 303 301 300
Wind_Speed
6 7 6 6 5 9 12 11 9 13 15 15 14 14 14 13 11 12 11 11 11 12 11 12 13 13 13 12 11 10 11 12 14 15 16 16 16 16 16 17 17 18 18 18 18 18 18 18 18 18 19 19 20 19 20 20 21 22 21 21 21 21 20 20 20 19 19 20 21 20 20 19 19 19 20 20 19 18 16 17 13 13 12 14 17
10 7 6 8 3 10 12 11 10 12 12 12 12 11 13 13 12 12 12 12 12 12 11 12 12 12 12 12 12 12 12 12 12 14 15 16 16 16 16 17 17 17 17 17 17 17 18 18 18 19 19 20 20 20 20 21 21 21 21 21 21 20 19 18 17 17 16 17 18 20 20 20 20 19 19 18 18 18 15 17 17 12 10 15 17
10 8 7 9 4 9 12 11 11 13 13 13 13 13 13 13 11 11 11 10 10 11 12 11 11 11 12 12 13 12 11 11 12 14 14 14 15 15 16 16 16 16 16 17 17 17 18 18 19 19 20 20 20 20 20 21 20 21 20 21 20 19 18 17 17 15 14 13 14 16 18 20 20 20 19 18 18 18 15 17 16 14 11 16 14
10 8 8 8 2 11 12 10 11 12 13 13 13 13 12 12 11 11 11 11 12 11 11 12 11 12 12 12 12 13 12 11 12 12 13 14 14 15 15 16 16 16 16 17 17 17 19 19 20 20 20 20 20 19 20 20 19 20 20 19 18 18 17 16 16 15 14 11 9 10 10 12 15 19 19 18 18 17 15 17 16 16 17 16 16
9 8 9 9 9 11 12 10 12 13 12 12 13 13 12 11 11 12 10 11 11 11 11 11 11 11 11 11 12 13 12 11 12 14 15 14 15 15 15 15 15 17 17 17 17 17 18 19 19 19 19 19 19 19 19 19 19 19 18 18 17 17 16 15 14 14 12 10 9 10 10 12 11 18 17 18 17 15 15 16 17 17 16 15 16
9 9 10 9 10 11 10 11 13 13 12 12 13 13 11 11 12 12 11 11 11 11 10 11 11 11 12 12 13 12 13 11 12 14 15 14 13 14 15 16 16 16 17 17 17 17 18 19 19 19 18 18 19 18 18 19 18 18 18 18 17 17 16 15 13 10 6 7 10 9 11 12 11 11 17 17 16 13 17 17 17 15 14 14 13
10 9 9 9 8 10 9 11 13 13 12 13 13 13 12 11 12 12 12 11 10 10 10 11 12 12 13 12 12 12 12 12 12 14 14 13 13 15 15 15 15 15 17 17 17 17 17 18 18 18 18 18 19 18 18 18 18 17 17 17 16 16 15 14 13 11 10 10 9 9 9 12 11 9 18 16 17 17 18 18 15 14 14 14 16
8 7 9 8 8 10 9 11 11 12 13 13 13 13 13 11 10 11 11 12 10 9 10 10 11 11 11 12 12 12 13 13 13 13 13 14 15 14 14 14 15 16 16 16 16 17 17 18 18 18 18 18 18 18 18 17 16 16 16 16 16 15 14 12 9 10 10 10 9 9 9 11 12 10 17 17 17 16 16 15 15 17 17 16 13
8 9 9 9 9 11 9 10 11 13 13 13 12 13 12 12 11 11 12 12 11 10 9 8 11 12 11 12 11 12 12 12 13 13 13 13 14 14 14 15 15 15 16 16 16 16 17 17 18 18 18 18 17 17 17 16 16 15 15 15 14 14 13 10 9 7 10 10 11 9 11 11 11 10 14 16 16 16 14 12 13 17 16 13 15
9 9 9 8 10 10 9 10 12 12 13 12 12 13 13 13 12 10 9 11 11 12 10 9 7 14 12 12 12 12 12 12 12 12 13 14 14 14 14 14 15 15 16 16 16 16 17 17 17 18 17 17 16 16 15 15 15 14 14 14 14 13 10 7 9 11 9 10 12 12 10 11 11 10 12 15 16 16 10 7 10 14 14 17 16
10 9 9 8 11 9 9 10 10 11 13 12 13 13 13 13 13 10 9 12 10 11 12 10 11 12 13 12 12 11 12 12 12 12 12 13 13 14 14 14 14 14 15 15 16 16 16 17 17 17 16 15 15 14 14 14 14 14 14 14 14 12 10 7 8 9 10 10 10 10 11 12 11 10 15 16 16 17 14 16 14 15 14 15 15
10 9 9 8 9 6 9 9 9 11 11 12 12 12 13 12 12 11 9 12 10 10 12 13 11 11 11 11 11 11 10 11 10 11 12 12 13 13 13 13 14 14 14 15 15 15 16 16 16 15 15 14 14 14 14 14 14 14 14 13 12 11 9 8 9 8 9 10 10 10 11 12 12 12 15 15 16 16 14 14 10 11 16 17 15
10 9 9 9 10 7 9 8 8 10 10 12 12 12 12 12 12 12 10 10 10 10 11 12 10 10 10 10 10 11 11 10 10 11 11 12 12 12 13 13 13 13 13 14 14 14 15 15 15 14 14 14 14 14 13 13 13 13 13 12 11 10 9 8 8 9 9 9 8 9 10 10 10 13 14 14 14 15 14 12 14 20 18 15 14
10 9 10 9 8 7 7 8 8 8 9 9 11 10 11 11 11 12 11 10 9 9 9 12 11 11 11 11 10 10 9 10 9 10 10 11 12 13 12 12 12 12 13 13 13 13 14 14 14 13 13 13 13 13 13 13 13 13 12 11 9 7 3 7 9 8 9 9 9 10 10 9 10 13 13 13 13 15 14 13 12 12 14 14 13
9 10 10 10 9 10 7 7 8 9 8 7 7 8 11 11 10 11 11 11 9 10 11 11 11 11 11 11 10 10 10 10 10 9 9 9 11 11 12 12 12 11 12 12 12 12 13 13 13 12 13 13 13 13 12 12 12 12 11 10 9 8 10 6 6 7 7 7 8 9 9 9 12 12 12 13 13 12 14 13 12 10 17 14 13
9 9 9 10 10 9 9 6 7 9 8 7 5 6 9 10 10 10 10 10 10 10 9 9 8 10 11 11 11 10 10 10 10 9 7 7 9 10 11 11 11 11 11 11 11 11 11 12 12 12 12 12 12 12 12 12 11 10 10 9 8 7 8 6 6 6 6 6 6 7 8 8 11 12 12 12 12 12 12 11 11 11 16 14 13
8 8 9 10 10 10 8 9 7 9 8 7 5 7 8 8 9 10 9 8 8 9 9 9 10 11 11 11 11 10 10 11 10 9 8 8 9 9 10 10 11 11 11 11 11 11 11 11 11 11 11 12 12 11 11 11 10 9 9 8 7 6 7 7 6 6 6 7 6 6 7 8 10 11 11 11 11 11 10 11 11 12 12 13 10
8 9 9 10 10 9 8 9 9 10 10 8 8 7 6 8 9 8 8 7 7 8 9 9 9 9 9 9 10 10 10 10 9 8 8 8 7 5 7 10 10 10 10 10 11 11 11 11 11 11 11 11 11 11 11 10 9 9 8 7 6 5 5 5 6 6 6 5 6 6 7 7 8 9 11 11 10 10 9 10 10 9 10 8 10
8 9 8 10 10 9 9 8 8 8 10 9 9 8 6 7 8 8 7 7 8 8 9 9 9 9 9 9 9 9 9 9 8 8 7 7 6 6 6 8 10 10 10 10 10 11 11 11 11 11 11 11 11 10 10 9 9 8 7 6 4 3 3 4 6 5 5 5 5 6 6 12 9 9 10 9 9 9 9 9 8 9 8 10 11
8 8 8 9 9 9 8 8 8 8 8 8 9 11 7 8 8 8 8 8 8 8 9 9 9 9 9 9 9 9 8 7 7 8 7 7 7 7 7 7 9 10 10 10 10 11 11 11 11 10 11 10 11 10 9 9 8 7 6 4 3 7 4 6 6 6 5 5 5 5 8 9 11 9 7 6 7 8 8 7 8 8 7 8 10
7 9 8 8 9 9 9 7 9 8 8 8 7 9 9 9 7 7 8 9 9 8 9 9 8 8 8 8 7 6 6 6 6 6 6 6 8 9 9 8 8 8 9 10 10 10 11 11 11 11 10 9 9 9 8 7 7 6 5 3 7 2 5 5 5 5 5 4 4 5 9 11 11 8 8 6 5 6 6 7 6 8 6 6 6
9 8 9 9 9 9 9 9 8 10 8 7 6 7 9 10 9 7 7 7 8 9 8 7 8 7 7 6 5 5 5 5 5 6 6 8 7 8 9 9 9 9 8 9 10 9 9 10 10 9 8 6 2 3 5 6 5 4 4 5 2 4 4 3 4 4 4 4 4 6 8 10 11 10 7 12 6 5 5 5 5 5 4 3 4
10 9 8 10 9 8 9 10 9 10 10 8 6 6 9 8 8 8 6 7 8 8 7 8 7 8 8 6 5 5 5 4 3 4 4 8 7 8 9 9 9 9 9 9 9 9 9 9 9 9 6 2 3 3 3 2 3 5 5 1 3 3 3 3 2 3 3 4 3 6 7 10 10 10 9 9 6 6 5 5 4 5 10 5 2
12 10 9 8 9 8 9 9 9 10 9 8 7 7 7 7 7 7 6 7 7 6 6 7 7 8 7 6 5 5 5 4 6 7 6 6 5 7 8 9 9 8 7 6 7 7 8 7 7 5 3 2 2 2 2 2 2 2 3 2 2 2 2 2 2 2 2 3 2 5 6 9 10 10 8 8 7 3 3 5 8 4 6 9 6
10 10 9 10 11 10 9 9 10 10 10 9 9 8 7 7 7 7 7 6 7 6 6 6 6 8 7 6 6 6 5 5 5 5 4 4 5 5 5 4 3 4 3 4 4 3 3 3 3 2 2 2 2 2 1 1 1 1 2 2 2 2 1 1 2 2 2 2 3 4 5 8 10 9 8 8 8 7 7 9 8 8 8 9 9
10 10 11 10 11 10 10 9 10 10 10 9 9 8 7 8 8 7 7 7 6 7 6 6 6 7 7 6 6 6 6 5 5 5 4 5 5 4 4 3 3 3 2 3 2 3 3 3 2 2 1 1 1 1 1 1 1 1 1 2 2 1 1 1 2 2 2 2 2 3 5 7 9 10 9 9 9 9 9 9 10 10 10 10 11
11 11 11 10 11 11 11 9 10 9 11 9 8 8 9 8 7 7 8 7 7 7 6 6 6 7 6 7 7 6 6 5 5 5 5 4 4 4 4 3 3 3 1 2 2 2 2 3 3 2 2 1 1 1 1 1 0 1 0 1 2 2 2 2 2 2 2 2 1 1 3 6 8 9 10 9 9 10 10 11 11 11 12 13 12
10 11 11 11 11 13 12 12 10 10 10 10 9 9 8 9 8 7 7 7 7 6 6 6 6 6 7 6 6 6 6 6 6 6 5 5 5 4 3 3 3 2 2 1 1 1 2 2 2 2 3 2 1 1 1 1 1 1 1 1 2 2 2 2 2 2 3 3 3 3 1 4 6 8 9 10 10 10 11 11 12 12 13 13 14
13 12 11 11 12 12 13 13 12 12 10 10 9 8 8 9 9 9 9 7 8 6 6 6 6 6 7 7 6 5 5 5 6 6 5 5 4 4 4 3 3 3 2 1 1 2 2 2 2 2 2 2 2 1 1 1 2 1 2 2 2 2 1 2 2 2 3 3 3 1 0 3 5 6 9 10 11 11 11 12 12 13 14 14 14
14 13 11 11 12 13 14 14 13 11 10 10 9 8 8 9 9 9 8 8 9 7 6 6 6 6 6 7 7 6 5 5 5 5 5 5 4 4 4 4 3 3 3 2 2 2 2 3 3 3 3 2 2 0 2 2 2 2 1 2 2 2 2 2 2 2 3 3 3 3 3 3 4 6 8 9 10 11 11 12 12 13 14 15 15
14 14 12 12 11 12 13 13 13 12 10 11 9 9 9 9 9 8 9 9 9 8 8 7 6 6 6 7 7 7 5 5 5 5 5 5 5 4 4 4 4 3 3 3 2 2 2 3 3 3 3 2 1 1 2 2 2 2 1 2 2 2 2 2 2 3 3 3 3 3 3 5 4 4 6 8 9 10 11 12 12 13 13 14 15
16 15 13 12 12 14 14 14 13 12 12 12 10 10 10 9 9 8 8 9 9 9 8 8 7 6 6 6 7 7 6 5 5 6 5 5 5 5 4 4 4 4 4 4 3 2 2 2 2 1 1 2 2 2 2 2 2 1 1 2 2 2 3 3 3 3 3 3 3 3 4 3 4 4 4 5 7 8 10 11 11 12 13 13 14
14 15 15 13 15 15 13 14 14 13 13 12 11 10 9 9 9 9 8 8 9 9 9 9 8 8 7 7 7 7 6 6 6 6 6 5 5 5 5 5 4 4 4 4 4 3 3 3 3 2 3 3 3 3 2 3 2 1 2 2 2 3 3 3 3 3 3 3 4 4 4 4 4 3 6 3 4 7 8 10 10 11 12 12 13
13 12 16 16 13 9 10 11 13 14 14 12 11 10 10 9 9 9 8 8 8 8 9 8 8 8 8 9 8 8 7 6 6 6 6 5 6 6 6 5 5 5 4 5 4 4 4 4 4 4 3 3 4 3 3 3 3 2 2 2 3 3 3 3 3 3 3 4 4 3 3 4 4 4 3 3 2 3 6 8 9 10 11 12 13
12 13 16 17 16 12 11 11 11 15 12 14 12 11 10 10 9 9 9 9 8 8 8 7 8 8 8 8 9 8 8 7 7 6 7 6 6 6 7 6 5 5 4 5 5 5 4 5 5 4 4 4 4 4 3 3 3 3 3 2 3 3 4 4 3 4 4 3 3 3 3 2 3 3 3 3 4 5 5 7 9 10 11 12 13
17 15 15 15 16 16 13 14 13 14 15 15 14 13 12 11 10 9 9 10 9 9 8 8 7 7 7 7 9 9 8 8 8 7 6 7 7 7 7 6 5 4 5 4 4 5 5 5 5 5 5 5 4 4 4 4 5 5 4 3 3 3 4 4 4 5 2 2 3 2 2 2 2 3 3 2 4 4 4 5 7 8 9 10 12
17 16 16 16 17 17 13 17 16 15 15 16 15 14 13 12 12 10 11 10 9 9 9 8 9 8 7 7 8 9 9 9 8 8 7 7 8 8 7 5 5 5 5 5 5 6 6 5 5 4 4 5 5 5 5 5 6 5 4 4 5 4 5 6 6 5 2 3 3 2 1 2 2 0 2 3 4 5 4 2 4 5 5 8 11
16 17 16 16 17 16 15 14 16 15 14 14 15 14 13 12 11 11 10 10 11 9 9 9 9 9 8 7 8 9 8 9 9 8 7 7 7 7 6 5 5 5 5 5 5 5 5 4 6 4 4 4 6 7 6 6 5 4 5 6 6 6 5 5 4 2 3 3 2 2 2 2 2 3 3 3 4 4 5 2 1 3 2 6 9
13 16 16 16 14 15 14 13 14 16 15 14 14 14 13 12 12 12 12 12 10 10 9 9 8 9 9 10 10 8 8 9 9 9 8 7 7 7 6 6 5 5 4 4 4 4 3 4 6 4 4 5 7 5 5 5 5 5 6 7 6 6 5 5 3 2 2 2 1 1 1 2 3 3 4 4 5 5 5 6 6 6 5 6 7
13 14 17 17 16 16 15 14 14 15 14 13 13 12 12 12 13 12 11 10 10 9 9 9 9 9 9 10 11 9 7 8 9 9 9 8 7 7 7 6 6 6 6 6 6 5 6 7 7 7 6 5 5 5 4 5 6 7 8 7 6 6 6 4 2 1 0 1 1 1 2 2 3 4 4 4 5 5 5 6 5 6 6 6 3
14 15 16 18 18 17 16 17 15 15 13 12 12 12 11 11 12 13 12 11 11 10 9 9 9 9 10 10 11 10 10 10 9 9 9 8 8 6 6 6 6 6 7 8 8 8 7 7 6 5 6 7 7 5 5 4 6 8 6 5 5 5 4 1 1 2 2 1 1 1 2 2 4 3 4 4 4 5 6 6 6 6 6 5 5
15 16 18 19 19 20 19 17 15 15 15 14 12 12 12 12 11 11 11 11 11 11 11 10 9 8 10 11 10 10 11 11 10 10 9 9 8 7 7 7 7 7 7 6 7 8 7 6 6 6 6 9 9 6 4 4 6 6 6 6 6 4 1 1 1 5 0 1 1 2 3 3 4 4 4 4 4 6 6 6 6 6 6 6 6
16 17 18 18 18 18 18 18 16 16 15 15 14 14 13 13 13 12 12 11 9 9 10 11 10 10 10 11 10 11 11 11 11 11 8 9 9 8 8 7 8 7 6 7 8 8 6 7 7 7 6 5 6 1 4 6 7 5 5 6 5 3 1 3 3 4 2 2 3 3 3 4 5 3 3 5 5 6 5 6 6 6 6 6 6
15 16 16 17 14 15 16 17 17 17 16 16 14 16 15 15 15 14 13 12 11 10 9 9 10 11 13 12 11 11 12 11 11 11 10 8 9 9 8 7 8 8 8 8 8 8 7 7 7 7 6 7 5 5 6 5 5 5 5 3 2 2 2 4 2 1 3 4 3 3 3 3 3 3 4 5 6 5 6 6 6 6 6 6 6
15 15 15 15 13 18 18 18 16 16 16 16 18 17 14 14 13 11 9 11 10 10 10 12 12 11 10 11 11 11 11 10 9 11 11 11 9 9 8 8 8 9 9 8 9 10 9 8 7 7 8 8 8 8 4 4 5 6 7 4 3 3 3 3 4 1 4 3 1 1 3 2 2 4 4 5 6 5 5 5 5 5 6 7 7
15 16 15 17 17 16 17 17 14 14 15 17 18 16 15 15 14 12 14 13 13 12 14 15 14 13 13 10 10 11 10 10 11 11 10 7 11 12 10 9 10 10 9 8 7 7 9 9 9 9 9 9 9 7 6 4 5 7 7 6 5 5 2 3 1 3 5 3 2 2 3 2 2 4 4 5 5 4 4 4 5 5 6 7 6
17 14 13 15 17 15 15 16 15 13 14 15 16 14 17 15 17 17 16 15 16 13 12 13 13 12 10 11 10 10 11 11 11 12 11 9 9 9 10 10 11 9 10 9 9 10 10 10 8 9 11 9 7 8 8 6 5 5 5 7 5 1 2 4 3 1 4 3 2 1 3 2 3 5 3 3 3 3 3 4 4 5 6 6 7
14 11 13 14 17 17 15 16 14 13 12 13 15 16 16 15 16 16 15 16 16 15 13 14 14 11 11 11 10 10 12 12 11 11 11 11 9 11 9 9 7 9 8 9 10 10 9 6 9 9 8 6 7 8 8 6 6 6 7 8 6 3 2 3 3 4 3 3 4 4 2 2 5 4 1 2 3 3 3 4 5 5 5 6 6
11 13 15 14 13 14 15 13 14 13 12 14 15 18 17 14 16 15 16 15 15 14 12 12 13 13 14 9 10 10 11 12 12 12 11 12 9 11 11 9 8 7 5 7 7 8 9 9 8 7 8 7 7 9 8 7 8 7 6 4 5 5 4 3 2 3 4 4 5 3 2 4 5 2 1 3 3 3 3 4 5 6 5 5 5
12 11 12 11 12 12 14 16 17 14 13 15 16 18 19 15 15 16 16 15 13 13 13 13 13 12 15 13 11 10 10 10 11 12 12 12 11 11 10 11 11 10 7 8 8 8 8 9 8 8 8 8 7 6 9 8 8 7 5 5 6 5 3 3 3 5 3 4 4 4 4 5 5 1 1 3 3 3 3 4 5 5 5 4 5
6 10 11 12 12 13 15 16 18 14 14 15 16 18 17 18 17 17 18 16 16 15 14 15 13 14 14 14 12 11 11 11 10 11 12 11 12 11 10 11 11 9 8 9 8 9 8 11 7 7 6 8 7 7 6 8 7 7 5 6 7 6 5 5 6 5 4 3 3 3 2 4 5 7 1 4 4 3 3 5 5 5 4 5 5
Wind_Direction
155 144 134 126 166 133 124 128 131 116 116 112 102 97 93 87 80 86 84 76 77 76 81 74 71 72 74 77 78 81 82 82 80 76 71 70 70 71 74 74 73 74 75 76 78 80 82 81 81 80 79 78 77 75 75 73 70 68 65 65 64 63 64 62 63 62 61 64 64 63 63 63 63 63 61 58 55 51 45 43 49 58 52 50 50
155 146 141 145 173 130 129 132 132 120 112 102 100 101 98 96 93 84 73 75 75 77 73 74 75 79 82 84 79 73 69 81 87 82 78 76 74 74 74 74 76 77 77 78 78 78 80 80 81 81 80 79 78 76 74 73 69 67 68 68 69 68 65 63 61 62 63 69 71 67 62 61 60 60 60 58 56 53 49 51 47 50 55 54 49
141 144 143 144 182 125 133 137 132 121 113 110 106 101 100 95 88 87 96 99 86 77 82 71 75 83 82 76 75 75 79 79 87 83 80 78 76 76 78 78 78 78 79 79 77 81 81 81 79 77 74 74 73 72 70 70 70 69 69 68 67 66 65 63 61 58 54 59 77 87 79 67 61 60 60 59 57 56 53 55 54 54 57 56 56
138 141 147 141 104 127 133 141 133 120 116 115 113 109 108 109 109 101 95 84 88 93 83 92 90 83 78 80 87 86 84 89 88 87 86 82 82 83 84 84 84 83 81 81 80 81 81 80 80 79 78 76 75 75 74 74 73 72 71 69 68 66 64 62 58 53 45 31 43 64 63 63 61 59 59 58 59 59 58 56 55 56 54 52 56
138 142 144 147 144 133 139 141 131 121 121 122 119 114 110 109 102 106 104 97 87 80 92 85 76 77 86 92 88 89 88 87 92 94 90 86 86 89 91 94 92 86 82 81 82 80 81 81 79 77 76 76 76 75 75 74 73 73 71 69 67 64 61 57 54 49 43 34 36 56 60 61 58 50 56 60 62 63 62 59 52 49 50 50 50
140 144 147 147 138 132 138 143 132 128 127 126 119 115 112 113 113 100 101 89 91 97 96 97 93 95 93 89 91 95 97 89 90 90 87 87 89 94 98 94 91 89 85 82 80 80 83 83 82 80 78 77 76 74 74 74 73 70 68 66 64 62 58 55 47 32 39 61 57 61 61 61 57 55 55 62 63 59 58 55 53 51 50 52 55
139 148 150 147 141 135 143 143 136 134 128 121 117 114 115 110 103 104 100 99 101 104 96 96 100 95 90 87 87 92 94 97 99 95 91 92 91 83 84 85 83 86 85 83 82 80 82 83 82 80 80 78 76 74 75 74 71 69 68 67 66 64 61 55 45 35 42 55 57 63 65 62 62 62 61 59 58 58 56 55 53 51 52 49 46
140 146 153 150 145 135 146 146 140 137 133 127 124 122 120 115 112 106 98 105 106 97 96 94 94 92 96 90 79 83 92 97 95 93 94 91 90 94 93 96 95 88 86 85 83 81 81 83 84 82 81 79 78 78 77 75 73 72 70 69 67 63 56 47 32 50 47 61 61 64 70 69 67 61 56 58 54 50 54 57 53 54 50 49 46
148 152 152 150 133 129 144 148 146 142 137 133 129 128 122 110 101 110 124 108 108 107 99 84 102 94 92 97 97 97 99 96 96 93 93 91 90 86 86 84 88 90 86 84 84 84 83 82 82 82 81 79 79 78 77 76 74 72 70 69 67 64 57 43 26 54 65 64 62 58 60 68 69 68 60 61 59 59 53 48 49 52 53 47 49
148 152 152 150 142 133 143 152 150 146 140 137 132 131 123 116 116 112 104 109 112 105 97 95 95 108 101 91 85 80 87 98 108 108 100 92 92 91 94 92 89 87 87 86 87 87 86 83 82 81 81 80 79 78 78 76 74 72 71 70 68 64 48 28 62 58 66 70 73 67 44 45 75 69 66 65 62 58 53 34 49 51 48 54 52
150 149 151 147 138 138 149 156 152 149 142 140 137 134 129 124 119 110 110 110 103 107 107 103 112 108 103 100 97 97 100 100 98 94 98 94 92 93 91 90 87 84 85 86 86 87 87 86 85 84 83 83 81 79 78 77 75 74 73 71 66 58 40 19 58 64 64 64 64 74 80 68 65 62 59 57 57 54 46 43 45 56 51 49 53
152 150 152 147 121 153 148 153 153 152 148 142 141 138 133 129 124 121 121 116 107 106 112 116 114 102 101 102 102 99 102 97 100 102 100 98 93 91 89 86 86 86 84 86 89 90 89 89 89 87 85 83 81 80 78 76 75 75 74 70 64 51 31 31 65 68 68 68 65 62 58 59 58 61 61 59 56 58 56 54 58 94 64 53 53
152 153 153 148 150 125 145 147 149 154 156 148 145 141 137 134 132 125 119 118 118 110 115 109 108 106 103 100 101 103 101 103 111 114 107 100 98 94 93 92 92 93 92 92 93 94 94 92 91 89 86 83 80 77 75 75 74 73 74 70 63 55 38 27 68 67 63 59 63 66 68 65 63 57 57 56 58 58 53 48 31 29 59 53 49
154 156 156 155 147 120 132 143 148 146 152 157 146 146 141 137 135 128 122 122 124 123 115 115 115 114 108 107 107 108 112 107 104 104 104 106 104 99 99 100 97 94 96 98 97 94 95 94 93 90 87 83 79 76 75 75 75 73 71 66 54 35 7 74 67 63 63 63 58 58 59 58 57 56 56 53 52 57 53 56 48 30 51 75 52
156 161 156 157 151 148 113 127 141 146 151 158 140 144 142 140 136 131 127 126 128 109 102 112 119 120 115 110 108 108 106 105 106 106 99 100 105 105 101 97 97 97 95 96 99 99 97 95 92 90 88 85 82 79 77 77 76 73 69 61 51 25 352 61 56 65 64 59 60 62 63 61 56 56 52 51 51 52 60 55 53 39 47 43 44
156 160 161 159 157 147 156 116 120 143 148 150 133 143 147 139 137 135 133 132 133 118 111 113 123 118 115 113 109 108 110 108 102 99 99 109 115 106 104 101 98 93 93 92 92 94 95 95 93 91 90 88 84 81 79 78 76 72 66 60 51 20 8 0 65 62 60 56 59 63 69 64 57 53 50 55 51 44 55 57 45 33 54 42 47
157 164 169 162 163 162 157 162 129 132 136 135 131 134 143 139 139 137 136 132 132 125 115 113 117 123 119 116 112 107 101 99 89 73 64 86 96 94 105 105 96 94 91 91 91 91 93 92 90 89 88 86 83 80 77 74 71 68 64 58 42 30 16 346 69 62 61 59 54 59 54 54 43 54 59 51 48 49 37 43 53 31 46 52 43
166 175 172 167 168 168 162 161 150 161 153 138 131 140 144 143 138 134 132 129 112 107 107 105 110 108 102 101 104 105 102 91 85 79 70 65 66 79 102 105 106 98 94 91 91 92 89 87 86 86 85 83 82 79 75 70 65 61 59 48 37 34 8 357 63 67 66 58 60 56 65 359 55 49 45 45 48 45 40 37 45 43 35 30 45
175 182 176 171 174 172 168 164 172 173 164 168 162 144 147 135 134 131 126 112 109 109 105 107 107 103 100 98 96 95 89 88 87 83 78 74 74 89 81 105 110 105 98 91 86 84 83 83 83 84 84 81 80 78 73 69 65 61 52 43 31 18 307 49 56 61 59 54 56 56 32 355 31 44 54 44 45 41 39 39 36 43 34 13 45
182 184 179 180 178 177 175 173 173 177 180 168 166 160 141 136 135 129 123 120 116 113 111 110 110 108 104 108 110 113 111 98 99 95 77 77 63 79 83 97 109 108 96 90 87 86 84 83 82 82 82 81 78 73 70 69 64 58 48 31 3 283 51 55 57 54 58 54 39 56 6 348 353 53 49 53 48 45 37 28 33 32 36 22 50
187 191 192 183 182 183 183 177 178 177 178 170 168 163 139 133 129 127 127 125 123 118 113 114 115 117 123 120 144 145 140 133 146 126 121 90 86 88 83 80 96 104 101 93 90 86 84 84 83 82 82 86 87 79 67 61 60 52 38 21 288 10 50 49 45 54 50 53 52 45 354 348 350 14 29 49 80 44 38 23 29 19 47 19 40
191 192 197 189 183 186 187 183 178 180 176 168 171 161 149 159 168 156 155 140 131 133 148 155 151 145 129 158 166 156 155 151 133 139 139 133 95 82 86 86 79 72 77 94 87 84 80 81 82 80 78 79 132 127 110 95 70 53 45 303 294 52 49 37 41 55 48 49 51 31 348 347 352 358 3 11 88 47 31 26 12 352 315 130 0
195 194 194 195 189 184 187 188 182 181 179 169 171 172 171 178 176 183 169 170 154 166 170 164 170 170 171 172 170 161 159 152 124 95 85 60 83 79 90 88 86 85 84 78 77 77 81 84 82 84 82 128 108 95 79 75 109 161 208 232 47 39 33 26 31 43 48 31 32 28 345 341 347 353 360 17 54 48 18 5 356 324 321 347 249
198 197 192 194 194 191 187 189 186 181 183 179 176 179 182 183 187 190 186 186 176 182 174 174 174 175 177 180 172 160 159 146 94 122 139 143 106 92 96 100 98 90 112 108 98 91 98 91 92 116 127 96 80 82 68 54 43 31 39 40 42 43 14 19 23 18 24 52 30 25 336 339 340 344 357 4 9 14 339 315 334 314 303 304 320
199 197 199 195 195 194 187 191 191 186 188 184 187 183 186 190 187 193 193 190 190 188 182 180 175 177 181 183 172 162 164 157 162 157 168 159 162 159 154 161 159 138 193 151 162 145 183 140 140 161 110 112 99 80 53 67 47 21 31 27 22 22 10 11 355 356 354 13 41 8 336 330 331 334 344 342 345 344 345 336 329 330 310 316 324
195 201 202 199 196 195 189 189 190 191 191 192 191 183 183 193 186 193 195 194 192 194 189 188 179 179 184 180 172 172 171 166 171 172 171 171 172 170 172 174 170 163 189 166 147 157 146 157 163 175 135 106 85 80 85 13 15 352 30 30 3 352 348 343 346 327 327 333 55 34 328 320 320 324 330 330 330 334 337 336 333 331 331 323 320
198 204 201 204 196 196 191 192 189 192 195 197 193 192 198 197 189 191 197 197 194 194 195 194 189 183 181 179 180 182 183 183 179 182 181 181 181 177 173 178 174 169 183 186 135 143 169 179 194 181 130 121 101 92 104 112 33 346 358 8 357 328 323 330 321 327 318 320 15 144 303 308 315 317 316 317 321 324 326 327 326 327 327 326 324
200 201 203 203 199 199 193 194 193 192 194 197 198 198 199 198 195 186 204 195 200 199 196 198 190 191 192 185 192 184 188 192 192 191 189 192 188 185 179 178 176 171 178 246 177 161 175 161 162 156 172 156 157 169 163 152 165 286 296 312 329 315 317 324 319 312 310 308 313 145 273 289 300 306 311 312 315 319 320 319 320 321 322 323 323
203 201 204 206 203 200 196 197 193 195 194 195 201 201 200 201 197 200 202 193 205 202 197 192 196 199 197 196 192 190 191 192 195 196 191 196 190 192 193 193 185 179 195 187 222 187 187 180 180 186 202 205 209 216 275 231 250 224 298 311 305 305 310 301 313 306 299 305 310 67 198 292 287 302 307 312 314 314 316 317 319 320 320 319 320
206 199 198 205 206 201 201 200 197 195 194 195 200 202 203 204 205 203 202 195 207 206 201 199 200 195 197 202 196 201 192 192 191 191 196 197 194 195 199 200 205 188 204 202 192 225 195 181 184 195 208 221 245 41 298 295 286 283 301 322 307 304 304 302 303 300 304 301 298 301 187 267 288 301 309 313 312 316 318 319 321 321 321 322 321
207 205 203 206 205 203 204 203 203 200 197 199 199 201 203 207 207 205 203 206 207 205 207 208 206 201 200 194 200 206 195 193 185 187 195 194 196 196 201 201 209 207 208 206 194 235 216 206 194 206 214 236 271 337 297 305 291 283 286 298 307 300 300 298 295 297 293 294 302 304 292 223 258 281 299 308 315 318 321 324 328 330 328 328 329
210 208 206 208 208 208 206 205 204 202 204 204 202 206 206 209 209 209 207 207 204 206 207 210 209 210 204 193 204 202 203 194 186 185 195 194 200 202 199 202 207 206 206 206 193 209 219 193 186 255 279 269 268 259 295 293 292 290 317 288 281 289 289 291 286 282 288 293 289 301 308 314 209 230 270 297 311 319 323 330 334 336 338 340 341
213 211 210 205 209 209 209 208 206 203 206 206 205 207 207 208 210 212 212 207 205 208 209 209 212 213 211 204 206 201 199 203 189 188 190 200 204 202 205 211 202 199 200 200 201 209 209 199 182 199 227 241 251 260 235 263 269 286 279 286 287 271 262 274 270 265 269 271 292 305 314 317 324 206 210 251 307 320 330 338 341 343 345 347 348
210 211 210 209 206 206 206 209 208 208 205 209 209 208 209 210 210 211 210 206 207 208 211 211 210 212 212 213 209 204 204 204 197 186 191 199 209 215 215 214 206 193 187 188 199 209 207 202 203 204 211 237 243 252 269 268 277 266 256 249 264 276 267 250 252 262 268 280 292 306 309 320 325 333 360 200 210 313 346 348 347 347 347 349 349
208 208 210 212 205 202 204 209 206 210 204 210 211 213 212 213 212 214 210 207 208 210 210 207 205 210 210 212 211 207 205 207 198 196 195 204 217 220 222 217 189 184 190 193 207 206 220 219 219 228 235 243 251 256 252 265 276 276 269 254 272 274 247 251 259 253 253 278 288 289 305 316 333 353 355 0 143 125 20 355 348 348 348 348 349
210 208 210 209 208 206 203 209 203 207 210 211 211 214 215 215 215 214 215 208 209 211 213 211 205 203 203 205 202 207 206 205 200 200 200 200 218 225 223 214 179 194 206 197 213 219 220 225 224 233 242 244 249 252 250 269 275 281 277 279 275 243 268 278 271 277 287 297 297 298 317 343 7 26 347 7 11 65 67 2 348 347 348 350 351
206 207 208 209 212 209 199 211 211 209 212 210 211 213 216 217 218 214 217 213 210 213 215 214 216 210 205 203 195 200 203 203 201 199 207 205 218 224 221 201 187 205 205 207 212 224 226 226 226 214 245 269 264 265 270 269 279 285 278 274 269 261 279 292 293 298 301 290 308 327 359 53 63 35 38 26 24 12 81 33 344 333 343 356 355
207 209 209 209 210 210 207 206 211 213 213 212 210 212 214 217 219 221 211 215 217 217 216 213 213 217 211 205 195 193 197 199 198 198 207 206 206 209 210 181 186 204 209 209 220 224 227 218 236 203 217 240 267 271 270 270 284 281 278 274 282 286 289 289 297 294 300 318 323 27 36 63 68 48 52 45 22 21 3 38 259 269 115 19 1
208 210 211 212 211 213 211 203 204 211 212 212 211 211 212 216 221 221 219 219 221 222 217 211 212 216 219 217 211 199 196 196 194 195 205 202 205 208 202 178 185 199 205 208 212 210 217 218 229 202 203 227 261 263 273 288 287 278 271 284 284 275 283 292 291 301 317 325 1 56 54 80 77 67 57 33 28 9 9 360 359 359 27 48 6
210 212 214 213 212 212 212 211 206 209 209 208 208 208 208 211 215 218 221 218 216 217 215 213 210 214 217 216 214 212 198 198 196 196 203 206 206 203 201 178 189 193 196 207 213 210 213 220 227 223 210 208 219 229 225 250 273 275 281 286 277 273 277 290 307 315 268 99 72 16 101 98 93 79 53 31 20 12 9 3 5 7 7 20 30
212 213 215 215 213 211 208 213 211 207 206 203 204 200 199 207 215 216 218 216 216 215 215 212 210 212 211 213 215 216 216 210 201 195 201 202 207 200 190 183 190 203 209 212 213 217 214 214 222 218 233 230 232 215 223 232 274 283 273 259 286 285 291 310 270 150 128 12 353 217 120 113 91 69 38 21 17 22 13 12 13 11 10 7 24
210 211 214 214 213 212 212 213 212 207 206 204 202 202 203 204 203 209 214 219 215 212 216 214 212 211 211 212 214 217 217 214 214 209 200 200 200 198 192 192 190 202 215 225 220 225 208 203 207 226 215 238 254 246 199 193 251 268 300 306 305 298 11 305 179 148 327 60 60 111 109 101 84 53 26 3 30 20 21 19 17 16 16 14 18
210 211 213 211 211 212 215 215 213 209 206 206 204 207 207 209 209 213 210 219 216 211 218 221 212 211 209 211 213 216 216 214 213 215 203 201 202 197 198 192 191 199 203 214 219 217 207 207 209 231 244 210 243 211 219 212 265 283 289 300 292 331 179 140 129 186 355 87 112 103 101 109 77 47 8 17 19 21 25 23 20 21 20 19 22
211 213 211 211 209 212 213 213 214 212 211 207 204 208 208 210 215 219 218 218 216 211 213 213 215 215 224 216 214 216 215 214 214 214 216 201 202 202 199 195 197 200 209 209 205 214 209 212 207 219 240 245 219 226 200 217 236 243 261 242 318 301 284 145 78 39 52 115 101 105 130 109 84 42 9 23 19 25 26 23 21 28 23 27 28
212 211 205 203 207 209 210 211 212 209 208 206 204 208 206 209 213 217 223 223 222 212 215 221 222 220 216 211 210 207 210 209 212 217 220 217 211 206 201 200 199 200 209 217 213 209 207 206 205 209 207 232 251 240 203 193 213 231 260 250 217 211 225 33 334 6 142 147 30 100 119 119 54 17 16 27 21 26 27 27 31 36 35 37 38
213 214 207 206 207 209 208 209 210 209 207 204 204 203 205 205 205 208 210 213 219 214 216 219 220 219 218 215 209 200 200 202 212 213 214 200 220 218 204 198 215 217 216 213 217 207 207 212 208 215 219 220 248 242 228 179 216 227 239 255 303 286 332 154 246 186 191 82 50 140 149 110 7 359 22 26 26 26 35 36 36 46 45 43 47
218 209 205 210 211 212 209 205 205 205 204 202 195 201 209 208 208 209 208 209 214 219 217 222 227 227 219 218 205 194 199 203 206 209 207 200 209 213 216 205 195 198 202 206 210 212 220 214 208 206 226 225 211 243 246 219 176 224 223 238 236 99 189 218 250 287 273 138 222 259 171 129 333 337 20 24 38 34 46 45 45 56 57 52 50
212 198 208 211 211 212 209 208 208 209 206 200 197 202 209 206 211 214 215 217 217 218 211 218 223 222 213 212 211 198 198 203 204 206 210 211 205 214 214 224 219 199 186 199 210 207 209 207 207 206 210 200 197 222 237 231 211 214 209 223 221 172 168 207 245 248 271 277 284 192 232 160 304 322 36 32 38 42 54 58 60 63 71 62 50
199 199 204 207 208 211 212 212 213 210 208 198 198 206 213 208 212 214 218 221 221 222 218 216 220 220 221 209 206 203 201 203 208 213 212 213 205 214 215 213 216 224 204 207 215 207 200 206 192 195 199 211 215 222 234 233 221 221 156 192 209 202 194 191 154 198 189 212 260 258 281 330 319 251 109 68 40 40 44 53 65 65 73 57 40
205 204 207 205 206 206 210 212 216 213 210 206 201 205 212 211 212 214 215 215 214 217 217 219 220 217 220 214 210 205 199 199 203 207 210 206 208 210 215 214 214 211 201 207 209 214 210 205 190 191 193 199 205 209 227 236 227 222 193 190 184 170 168 151 166 182 209 214 252 292 320 321 317 273 333 52 34 49 68 74 79 78 72 54 35
182 203 207 205 202 202 208 211 216 214 210 208 202 205 207 214 216 214 212 211 207 209 213 218 217 216 216 213 211 209 205 201 201 205 205 204 210 209 209 214 214 209 198 204 208 211 215 220 200 183 180 195 197 202 210 234 226 212 191 187 199 184 178 174 175 185 183 173 207 249 287 308 295 304 22 11 18 41 60 77 76 76 61 47 38